| time (UTC) | temp F | wind direction | speed knots | gust knots | rain 1hr in | rain 24hr in | rain mn in | humidity % | barometer mb |
| 20260505051803 | 56 | 184 | 6.1 | 13.9 | 0.00 | 0.00 | 0.00 | 64 | 1008.5 |
| 20260505050904 | 55 | 182 | 4.3 | 11.3 | 0.00 | 0.00 | 0.00 | 64 | 1008.5 |
| 20260505050110 | 56 | 177 | 5.2 | 12.2 | 0.00 | 0.00 | 0.00 | 64 | 1008.6 |
| 20260505040904 | 56 | 178 | 5.2 | 12.2 | 0.00 | 0.00 | 0.00 | 60 | 1008.5 |
| 20260505040110 | 56 | 176 | 5.2 | 12.2 | 0.00 | 0.00 | 0.00 | 60 | 1008.4 |
| 20260505035403 | 57 | 179 | 5.2 | 9.6 | 0.00 | 0.00 | 0.00 | 59 | 1008.3 |
| 20260505034503 | 57 | 179 | 5.2 | 18.2 | 0.00 | 0.00 | 0.00 | 59 | 1008.4 |
| 20260505033603 | 57 | 185 | 6.1 | 11.3 | 0.00 | 0.00 | 0.00 | 58 | 1008.4 |
| 20260505032809 | 57 | 180 | 5.2 | 11.3 | 0.00 | 0.00 | 0.00 | 58 | 1008.3 |
| 20260505031803 | 58 | 177 | 7.0 | 15.6 | 0.00 | 0.00 | 0.00 | 57 | 1008.2 |
| 20260505030904 | 58 | 180 | 6.1 | 14.8 | 0.00 | 0.00 | 0.00 | 56 | 1008.2 |
| 20260505030003 | 58 | 184 | 5.2 | 11.3 | 0.00 | 0.00 | 0.00 | 55 | 1008.3 |
| 20260505025403 | 58 | 184 | 5.2 | 11.3 | 0.00 | 0.00 | 0.00 | 55 | 1008.3 |
| 20260505024503 | 59 | 175 | 5.2 | 13.9 | 0.00 | 0.00 | 0.00 | 55 | 1008.3 |
| 20260505023604 | 59 | 167 | 6.1 | 11.3 | 0.00 | 0.00 | 0.00 | 54 | 1008.4 |
| 20260505022703 | 59 | 177 | 7.0 | 14.8 | 0.00 | 0.00 | 0.00 | 53 | 1008.3 |
| 20260505021803 | 60 | 175 | 6.1 | 12.2 | 0.00 | 0.00 | 0.00 | 53 | 1008.3 |
| 20260505020903 | 60 | 173 | 7.0 | 17.4 | 0.00 | 0.00 | 0.00 | 52 | 1008.3 |
| 20260505020003 | 60 | 176 | 7.0 | 13.9 | 0.00 | 0.00 | 0.00 | 52 | 1008.3 |
| 20260505015403 | 60 | 175 | 7.0 | 16.5 | 0.00 | 0.00 | 0.00 | 52 | 1008.2 |
| 20260505014503 | 60 | 171 | 5.2 | 14.8 | 0.00 | 0.00 | 0.00 | 52 | 1008.0 |
| 20260505013603 | 61 | 174 | 6.1 | 14.8 | 0.00 | 0.00 | 0.00 | 51 | 1007.9 |
| 20260505012704 | 61 | 177 | 7.0 | 16.5 | 0.00 | 0.00 | 0.00 | 50 | 1007.8 |
| 20260505011803 | 62 | 176 | 5.2 | 13.9 | 0.00 | 0.00 | 0.00 | 49 | 1007.5 |
| 20260505010904 | 62 | 186 | 7.0 | 16.5 | 0.00 | 0.00 | 0.00 | 49 | 1007.4 |
| 20260505010003 | 62 | 184 | 7.8 | 20.9 | 0.00 | 0.00 | 0.00 | 48 | 1007.2 |
| 20260505005509 | 63 | 183 | 8.7 | 20.0 | 0.00 | 0.00 | 0.00 | 47 | 1007.1 |
| 20260505004504 | 63 | 181 | 9.6 | 23.5 | 0.00 | 0.00 | 0.00 | 47 | 1006.9 |
| 20260505003608 | 63 | 179 | 9.6 | 17.4 | 0.00 | 0.00 | 0.00 | 46 | 1006.6 |
| 20260505002708 | 64 | 178 | 8.7 | 19.1 | 0.00 | 0.00 | 0.00 | 45 | 1006.4 |
| 20260505001910 | 64 | 176 | 8.7 | 19.1 | 0.00 | 0.00 | 0.00 | 45 | 1006.2 |
| 20260505000903 | 65 | 179 | 8.7 | 20.9 | 0.00 | 0.00 | 0.00 | 43 | 1006.0 |
| 20260505000004 | 66 | 187 | 6.1 | 20.0 | 0.00 | 0.00 | 0.00 | 41 | 1005.7 |
| 20260504235403 | 67 | 180 | 3.5 | 11.3 | 0.00 | 0.00 | 0.00 | 38 | 1005.5 |
| 20260504234503 | 67 | 203 | 2.6 | 7.0 | 0.00 | 0.00 | 0.00 | 36 | 1005.2 |
| 20260504233709 | 68 | 216 | 3.5 | 8.7 | 0.00 | 0.00 | 0.00 | 35 | 1005.2 |
| 20260504232704 | 68 | 214 | 6.1 | 13.0 | 0.00 | 0.00 | 0.00 | 35 | 1005.1 |
| 20260504231910 | 69 | 219 | 4.3 | 13.0 | 0.00 | 0.00 | 0.00 | 34 | 1005.0 |
| 20260504230904 | 69 | 206 | 5.2 | 11.3 | 0.00 | 0.00 | 0.00 | 34 | 1004.9 |
| 20260504230110 | 70 | 201 | 4.3 | 9.6 | 0.00 | 0.00 | 0.00 | 34 | 1004.7 |
| 20260504225403 | 70 | 197 | 4.3 | 8.7 | 0.00 | 0.00 | 0.00 | 34 | 1004.7 |
| 20260504224503 | 70 | 212 | 6.1 | 15.6 | 0.00 | 0.00 | 0.00 | 34 | 1004.7 |
| 20260504223710 | 70 | 206 | 6.1 | 15.6 | 0.00 | 0.00 | 0.00 | 34 | 1004.6 |
| 20260504222809 | 70 | 201 | 5.2 | 11.3 | 0.00 | 0.00 | 0.00 | 34 | 1004.5 |
| 20260504221803 | 70 | 214 | 7.0 | 14.8 | 0.00 | 0.00 | 0.00 | 34 | 1004.6 |
| 20260504220903 | 70 | 219 | 7.8 | 16.5 | 0.00 | 0.00 | 0.00 | 34 | 1004.6 |
| 20260504220003 | 70 | 217 | 7.8 | 14.8 | 0.00 | 0.00 | 0.00 | 33 | 1004.5 |
| 20260504215403 | 70 | 221 | 7.0 | 14.8 | 0.00 | 0.00 | 0.00 | 32 | 1004.6 |
| 20260504214503 | 70 | 213 | 6.1 | 14.8 | 0.00 | 0.00 | 0.00 | 33 | 1004.5 |
| 20260504213603 | 70 | 226 | 7.0 | 16.5 | 0.00 | 0.00 | 0.00 | 33 | 1004.6 |
| 20260504212703 | 71 | 211 | 6.1 | 18.2 | 0.00 | 0.00 | 0.00 | 33 | 1004.5 |
| 20260504211803 | 71 | 218 | 7.8 | 18.2 | 0.00 | 0.00 | 0.00 | 33 | 1004.6 |
| 20260504210904 | 71 | 213 | 6.1 | 13.9 | 0.00 | 0.00 | 0.00 | 33 | 1004.6 |
| 20260504210003 | 70 | 213 | 6.1 | 13.0 | 0.00 | 0.00 | 0.00 | 33 | 1004.6 |
| 20260504205403 | 70 | 214 | 6.1 | 12.2 | 0.00 | 0.00 | 0.00 | 33 | 1004.6 |
| 20260504204504 | 70 | 230 | 7.0 | 18.2 | 0.00 | 0.00 | 0.00 | 33 | 1004.5 |
| 20260504203603 | 70 | 209 | 7.0 | 15.6 | 0.00 | 0.00 | 0.00 | 33 | 1004.6 |
| 20260504202704 | 69 | 202 | 6.1 | 13.9 | 0.00 | 0.00 | 0.00 | 32 | 1004.5 |
| 20260504201803 | 69 | 204 | 6.1 | 18.2 | 0.00 | 0.00 | 0.00 | 33 | 1004.5 |
| 20260504200903 | 69 | 213 | 9.6 | 21.7 | 0.00 | 0.00 | 0.00 | 32 | 1004.5 |
| 20260504200003 | 69 | 203 | 7.8 | 20.9 | 0.00 | 0.00 | 0.00 | 32 | 1004.7 |
| 20260504195404 | 69 | 212 | 7.8 | 16.5 | 0.00 | 0.00 | 0.00 | 31 | 1004.6 |
| 20260504194503 | 69 | 213 | 9.6 | 19.1 | 0.00 | 0.00 | 0.00 | 32 | 1004.6 |
| 20260504193604 | 70 | 226 | 8.7 | 21.7 | 0.00 | 0.00 | 0.00 | 31 | 1004.7 |
| 20260504192703 | 69 | 216 | 10.4 | 23.5 | 0.00 | 0.00 | 0.00 | 32 | 1004.6 |
| 20260504191803 | 70 | 204 | 10.4 | 24.3 | 0.00 | 0.00 | 0.00 | 32 | 1004.7 |
| 20260504190903 | 69 | 191 | 8.7 | 22.6 | 0.00 | 0.00 | 0.00 | 31 | 1004.8 |
| 20260504190109 | 69 | 202 | 8.7 | 18.2 | 0.00 | 0.00 | 0.00 | 32 | 1004.8 |
| 20260504185404 | 69 | 228 | 10.4 | 20.0 | 0.00 | 0.00 | 0.00 | 34 | 1004.8 |
| 20260504184505 | 69 | 210 | 6.1 | 17.4 | 0.00 | 0.00 | 0.00 | 31 | 1004.9 |
| 20260504183603 | 69 | 208 | 8.7 | 21.7 | 0.00 | 0.00 | 0.00 | 32 | 1005.0 |
| 20260504182810 | 69 | 219 | 8.7 | 20.9 | 0.00 | 0.00 | 0.00 | 32 | 1005.1 |
| 20260504181803 | 68 | 206 | 10.4 | 22.6 | 0.00 | 0.00 | 0.00 | 32 | 1005.1 |
| 20260504180903 | 68 | 189 | 9.6 | 22.6 | 0.00 | 0.00 | 0.00 | 33 | 1005.0 |
| 20260504180004 | 68 | 206 | 10.4 | 25.2 | 0.00 | 0.00 | 0.00 | 33 | 1005.1 |
| 20260504175404 | 68 | 204 | 9.6 | 25.2 | 0.00 | 0.00 | 0.00 | 33 | 1005.1 |
| 20260504174503 | 68 | 214 | 10.4 | 26.1 | 0.00 | 0.00 | 0.00 | 34 | 1005.3 |
| 20260504173603 | 67 | 215 | 11.3 | 22.6 | 0.00 | 0.00 | 0.00 | 35 | 1005.5 |
| 20260504172703 | 68 | 202 | 9.6 | 23.5 | 0.00 | 0.00 | 0.00 | 34 | 1005.5 |
| 20260504171804 | 67 | 197 | 10.4 | 23.5 | 0.00 | 0.00 | 0.00 | 34 | 1005.5 |
| 20260504170904 | 66 | 199 | 10.4 | 22.6 | 0.00 | 0.00 | 0.00 | 35 | 1005.4 |
| 20260504150903 | 63 | 216 | 8.7 | 18.2 | 0.00 | 0.00 | 0.00 | 42 | 1006.9 |
| 20260504140904 | 61 | 203 | 7.8 | 17.4 | 0.00 | 0.00 | 0.00 | 45 | 1007.5 |
| 20260504130109 | 57 | 218 | 7.8 | 18.2 | 0.00 | 0.00 | 0.00 | 47 | 1008.1 |
| 20260504090109 | 45 | 189 | 3.5 | 7.8 | 0.00 | 0.00 | 0.00 | 58 | 1008.4 |
| 20260504081803 | 45 | 185 | 1.7 | 6.1 | 0.00 | 0.00 | 0.00 | 59 | 1008.7 |
| 20260504080903 | 44 | 191 | 2.6 | 7.8 | 0.00 | 0.00 | 0.00 | 59 | 1008.7 |